Welcome to Northern Hawkes Bay. New Zealand.
PWS Header
      nz Flag



Hit Counter


W3C Valid W3C Valid logo


    Wairoa

Select any of the Stations below to visit their websites.










Historic Data from Weather Underground
Select the location of interest below. Wairoa is the default. Please have patience, this Data is slow to load in.
Northern Hawkes Bay Historical Data
Daily Summary for February 19, 2017 Units:  Metric    English   Both
« Previous Day
Next Day »
Daily Weekly Monthly Yearly Custom
  High: Low: Average:
Temperature: 28.6 °C 17.2 °C 21.7 °C
Dew Point: 19.8 °C 16.5 °C 18 °C
Humidity: 99% 56% 81%
Wind Speed: 15.8km/h 0.0km/h 3.7km/h
Wind Gust: 23.3km/h - -
Wind- - East
Pressure: 1025.6 hPa 1021.6 hPa -
Precipitation: 0.0 mm    
Historical Graphs
 
 
Tabular Data for February 19, 2017
Time Temperature Dew Point Pressure Wind Wind Speed Wind Gust Humidity Rainfall Rate (Hourly) solar
00:01 18.3 °C 17.8 °C 1021.9 hPa Calm     97% 0.3 mm 0 W/m2
00:06 18.2 °C 17.9 °C 1021.9 hPa Calm     98% 0.3 mm 0 W/m2
00:11 18.3 °C 18.0 °C 1021.9 hPa Calm     98% 0.3 mm 0 W/m2
00:16 18.2 °C 17.9 °C 1021.6 hPa Calm     98% 0.3 mm 0 W/m2
00:21 18.3 °C 18.0 °C 1021.9 hPa NE 2.6 km/h 3.5 km/h 98% 0.3 mm 0 W/m2
00:26 18.2 °C 17.9 °C 1021.9 hPa Calm   3.5 km/h 98% 0.0 mm 0 W/m2
00:31 18.3 °C 18.0 °C 1021.9 hPa Calm   3.5 km/h 98% 0.0 mm 0 W/m2
00:36 18.3 °C 18.0 °C 1021.9 hPa Calm   1.1 km/h 98% 0.0 mm 0 W/m2
00:41 18.3 °C 18.0 °C 1021.9 hPa Calm   3.5 km/h 98% 0.0 mm 0 W/m2
00:46 18.3 °C 18.0 °C 1021.6 hPa Calm   3.5 km/h 98% 0.0 mm 0 W/m2
00:51 18.3 °C 18.2 °C 1021.9 hPa Calm   1.1 km/h 99% 0.0 mm 0 W/m2
00:56 18.3 °C 18.2 °C 1021.9 hPa Calm     99% 0.0 mm 0 W/m2
01:01 18.3 °C 18.2 °C 1021.9 hPa Calm   1.1 km/h 99% 0.0 mm 0 W/m2
01:06 18.3 °C 18.2 °C 1021.9 hPa Calm   1.1 km/h 99% 0.0 mm 0 W/m2
01:11 18.3 °C 18.2 °C 1021.9 hPa Calm     99% 0.0 mm 0 W/m2
01:16 18.3 °C 18.2 °C 1021.9 hPa Calm     99% 0.0 mm 0 W/m2
01:21 18.3 °C 18.2 °C 1021.9 hPa NE 2.6 km/h 5.0 km/h 99% 0.0 mm 0 W/m2
01:27 18.3 °C 18.2 °C 1021.9 hPa Calm   5.0 km/h 99% 0.0 mm 0 W/m2
01:32 18.3 °C 18.2 °C 1021.9 hPa NE 5.0 km/h 6.1 km/h 99% 0.0 mm 0 W/m2
01:37 18.3 °C 18.2 °C 1021.9 hPa NE 2.6 km/h 6.1 km/h 99% 0.0 mm 0 W/m2
01:42 18.3 °C 18.2 °C 1021.6 hPa ENE 1.1 km/h 6.1 km/h 99% 0.0 mm 0 W/m2
01:47 18.3 °C 18.2 °C 1021.9 hPa Calm   3.5 km/h 99% 0.0 mm 0 W/m2
01:52 18.2 °C 18.1 °C 1021.6 hPa Calm   2.6 km/h 99% 0.0 mm 0 W/m2
01:57 18.2 °C 18.1 °C 1021.9 hPa Calm   2.6 km/h 99% 0.0 mm 0 W/m2
02:02 18.2 °C 18.1 °C 1021.6 hPa Calm   2.6 km/h 99% 0.0 mm 0 W/m2
02:07 18.2 °C 18.1 °C 1021.6 hPa Calm   1.1 km/h 99% 0.0 mm 0 W/m2
02:25 18.2 °C 18.1 °C 1021.9 hPa Calm   2.6 km/h 99% 0.0 mm 0 W/m2
02:30 18.1 °C 17.9 °C 1021.6 hPa Calm   2.6 km/h 99% 0.0 mm 0 W/m2
02:36 18.2 °C 18.1 °C 1021.9 hPa Calm   1.1 km/h 99% 0.0 mm 0 W/m2
02:41 18.2 °C 18.1 °C 1021.9 hPa Calm     99% 0.0 mm 0 W/m2
02:46 18.2 °C 18.1 °C 1021.9 hPa Calm     99% 0.0 mm 0 W/m2
02:51 18.2 °C 18.1 °C 1021.9 hPa Calm   2.6 km/h 99% 0.0 mm 0 W/m2
02:57 18.2 °C 18.1 °C 1021.9 hPa Calm   1.1 km/h 99% 0.0 mm 0 W/m2
03:02 18.2 °C 18.1 °C 1021.9 hPa Calm   1.1 km/h 99% 0.0 mm 0 W/m2
03:07 18.2 °C 18.1 °C 1021.9 hPa Calm     99% 0.0 mm 0 W/m2
03:12 18.2 °C 18.1 °C 1021.9 hPa Calm     99% 0.0 mm 0 W/m2
03:17 18.2 °C 18.1 °C 1021.6 hPa Calm     99% 0.0 mm 0 W/m2
03:22 18.2 °C 18.1 °C 1021.9 hPa North 1.1 km/h 3.5 km/h 99% 0.0 mm 0 W/m2
03:27 18.1 °C 17.9 °C 1021.6 hPa Calm   3.5 km/h 99% 0.0 mm 0 W/m2
03:32 18.1 °C 17.9 °C 1021.6 hPa Calm   3.5 km/h 99% 0.0 mm 0 W/m2
03:37 18.1 °C 17.9 °C 1021.6 hPa Calm   2.6 km/h 99% 0.0 mm 0 W/m2
03:42 18.1 °C 17.9 °C 1021.6 hPa ENE 2.6 km/h 5.0 km/h 99% 0.0 mm 0 W/m2
03:47 18.1 °C 17.9 °C 1021.6 hPa ENE 1.1 km/h 6.1 km/h 99% 0.0 mm 0 W/m2
03:52 18.1 °C 17.9 °C 1021.6 hPa Calm   6.1 km/h 99% 0.0 mm 0 W/m2
03:58 18.1 °C 17.9 °C 1021.9 hPa Calm   2.6 km/h 99% 0.0 mm 0 W/m2
04:03 18.1 °C 17.9 °C 1021.6 hPa ESE 1.1 km/h 3.5 km/h 99% 0.0 mm 0 W/m2
04:09 18.1 °C 17.9 °C 1021.6 hPa East 3.5 km/h 7.2 km/h 99% 0.0 mm 0 W/m2
04:15 18.1 °C 17.9 °C 1021.6 hPa East 1.1 km/h 7.2 km/h 99% 0.0 mm 0 W/m2
04:20 18.1 °C 17.9 °C 1021.6 hPa ENE 1.1 km/h 3.5 km/h 99% 0.0 mm 0 W/m2
04:26 18.2 °C 18.1 °C 1021.6 hPa Calm   3.5 km/h 99% 0.0 mm 0 W/m2
04:31 18.2 °C 18.1 °C 1021.6 hPa Calm   3.5 km/h 99% 0.0 mm 0 W/m2
04:36 18.1 °C 17.9 °C 1021.6 hPa ENE 2.6 km/h 3.5 km/h 99% 0.0 mm 0 W/m2
04:41 18.1 °C 17.9 °C 1021.6 hPa ENE 2.6 km/h 5.0 km/h 99% 0.0 mm 0 W/m2
04:46 18.1 °C 17.9 °C 1021.6 hPa ENE 1.1 km/h 5.0 km/h 99% 0.0 mm 0 W/m2
04:51 18.1 °C 17.8 °C 1021.6 hPa Calm   5.0 km/h 98% 0.0 mm 0 W/m2
04:56 18.0 °C 17.7 °C 1021.6 hPa Calm   3.5 km/h 98% 0.0 mm 0 W/m2
05:01 18.0 °C 17.7 °C 1021.6 hPa Calm   1.1 km/h 98% 0.0 mm 0 W/m2
05:06 18.0 °C 17.7 °C 1021.6 hPa Calm   1.1 km/h 98% 0.0 mm 0 W/m2
05:11 17.9 °C 17.4 °C 1021.6 hPa Calm   1.1 km/h 97% 0.0 mm 0 W/m2
05:17 17.9 °C 17.4 °C 1021.6 hPa Calm     97% 0.0 mm 0 W/m2
05:22 17.9 °C 17.4 °C 1021.6 hPa Calm     97% 0.0 mm 0 W/m2
05:28 17.8 °C 17.3 °C 1021.9 hPa Calm   1.1 km/h 97% 0.0 mm 0 W/m2
05:33 17.8 °C 17.3 °C 1021.9 hPa Calm   1.1 km/h 97% 0.0 mm 0 W/m2
05:38 17.8 °C 17.3 °C 1021.9 hPa Calm     97% 0.0 mm 0 W/m2
05:43 17.7 °C 17.2 °C 1021.9 hPa Calm     97% 0.0 mm 0 W/m2
05:48 17.7 °C 17.2 °C 1021.9 hPa Calm     97% 0.0 mm 0 W/m2
05:53 17.7 °C 17.2 °C 1021.9 hPa Calm     97% 0.0 mm 0 W/m2
05:56 17.7 °C 17.2 °C 1021.9 hPa Calm     97% 0.0 mm 0 W/m2
05:57 17.6 °C 17.1 °C 1021.9 hPa Calm     97% 0.0 mm 0 W/m2
06:00 17.6 °C 17.1 °C 1022.2 hPa Calm     97% 0.0 mm 0 W/m2
06:04 17.5 °C 17.1 °C 1021.9 hPa Calm     97% 0.0 mm 0 W/m2
06:07 17.6 °C 17.1 °C 1021.9 hPa Calm     97% 0.0 mm 0 W/m2
06:12 17.6 °C 17.1 °C 1022.2 hPa Calm     97% 0.0 mm 0 W/m2
06:17 17.6 °C 17.1 °C 1022.2 hPa Calm     97% 0.0 mm 0 W/m2
06:22 17.5 °C 17.1 °C 1022.2 hPa Calm     97% 0.0 mm 0 W/m2
06:27 17.5 °C 17.1 °C 1022.2 hPa Calm     97% 0.0 mm 0 W/m2
06:32 17.4 °C 16.9 °C 1022.6 hPa Calm     97% 0.0 mm 0 W/m2
06:37 17.4 °C 16.9 °C 1022.6 hPa Calm     97% 0.0 mm 0 W/m2
06:42 17.4 °C 16.9 °C 1022.6 hPa Calm     97% 0.0 mm 2 W/m2
06:47 17.3 °C 16.8 °C 1022.6 hPa Calm     97% 0.0 mm 4 W/m2
06:52 17.3 °C 16.8 °C 1022.6 hPa Calm   1.1 km/h 97% 0.0 mm 9 W/m2
06:53 17.3 °C 16.8 °C 1022.9 hPa Calm   1.1 km/h 97% 0.0 mm 9 W/m2
06:58 17.2 °C 16.7 °C 1022.9 hPa Calm   1.1 km/h 97% 0.0 mm 14 W/m2
07:03 17.2 °C 16.7 °C 1022.9 hPa Calm     97% 0.0 mm 22 W/m2
07:08 17.4 °C 16.9 °C 1022.9 hPa Calm     97% 0.0 mm 37 W/m2
07:13 17.8 °C 17.3 °C 1022.9 hPa Calm   2.6 km/h 97% 0.0 mm 65 W/m2
07:18 18.2 °C 18.1 °C 1023.2 hPa NE 1.1 km/h 3.5 km/h 99% 0.0 mm 57 W/m2
07:23 18.6 °C 18.4 °C 1023.2 hPa Calm   3.5 km/h 99% 0.0 mm 63 W/m2
07:28 18.9 °C 18.8 °C 1023.2 hPa NNE 2.6 km/h 3.5 km/h 99% 0.0 mm 110 W/m2
07:33 19.3 °C 19.2 °C 1023.2 hPa Calm   3.5 km/h 99% 0.0 mm 129 W/m2
07:38 20.1 °C 19.8 °C 1023.2 hPa NNE 2.6 km/h 3.5 km/h 98% 0.0 mm 138 W/m2
07:43 20.5 °C 19.8 °C 1023.2 hPa North 1.1 km/h 3.5 km/h 96% 0.0 mm 140 W/m2
07:48 20.8 °C 19.7 °C 1023.2 hPa North 1.1 km/h 3.5 km/h 93% 0.0 mm 144 W/m2
07:53 21.2 °C 19.2 °C 1023.2 hPa NNE 1.1 km/h 3.5 km/h 88% 0.0 mm 167 W/m2
07:58 21.4 °C 18.2 °C 1023.2 hPa Calm   6.1 km/h 82% 0.0 mm 105 W/m2
08:03 21.4 °C 18.0 °C 1023.2 hPa NNE 1.1 km/h 6.1 km/h 81% 0.0 mm 78 W/m2
08:08 21.2 °C 17.8 °C 1023.6 hPa Calm   3.5 km/h 81% 0.0 mm 175 W/m2
08:13 21.9 °C 18.9 °C 1023.6 hPa Calm   2.6 km/h 83% 0.0 mm 203 W/m2
08:18 22.3 °C 18.9 °C 1023.2 hPa Calm   3.5 km/h 81% 0.0 mm 207 W/m2
08:23 23.3 °C 18.8 °C 1023.6 hPa NNE 2.6 km/h 5.0 km/h 76% 0.0 mm 216 W/m2
08:28 23.4 °C 18.1 °C 1023.9 hPa ENE 1.1 km/h 5.0 km/h 72% 0.0 mm 228 W/m2
08:33 23.7 °C 17.9 °C 1023.6 hPa ENE 3.5 km/h 6.1 km/h 70% 0.0 mm 244 W/m2
08:38 23.7 °C 17.9 °C 1023.6 hPa NE 1.1 km/h 6.1 km/h 70% 0.0 mm 263 W/m2
08:43 23.9 °C 17.7 °C 1023.6 hPa NE 5.0 km/h 7.2 km/h 68% 0.0 mm 168 W/m2
08:48 23.0 °C 17.0 °C 1023.9 hPa NE 5.0 km/h 8.7 km/h 69% 0.0 mm 329 W/m2
09:07 23.7 °C 17.4 °C 1023.6 hPa NE 3.5 km/h 11.1 km/h 68% 0.0 mm 410 W/m2
09:12 24.0 °C 17.5 °C 1023.9 hPa NE 2.6 km/h 7.2 km/h 67% 0.0 mm 263 W/m2
09:17 24.1 °C 17.1 °C 1023.9 hPa ENE 3.5 km/h 7.2 km/h 65% 0.0 mm 290 W/m2
09:22 23.7 °C 17.2 °C 1023.9 hPa ENE 2.6 km/h 7.2 km/h 67% 0.0 mm 230 W/m2
09:27 23.2 °C 16.5 °C 1023.9 hPa NNE 1.1 km/h 6.1 km/h 66% 0.0 mm 207 W/m2
09:32 23.3 °C 17.1 °C 1023.9 hPa Calm   6.1 km/h 68% 0.0 mm 334 W/m2
09:37 24.0 °C 17.1 °C 1023.9 hPa NE 5.0 km/h 7.2 km/h 65% 0.0 mm 389 W/m2
09:42 24.0 °C 17.1 °C 1024.3 hPa NE 5.0 km/h 9.7 km/h 65% 0.0 mm 435 W/m2
09:47 24.2 °C 17.0 °C 1024.3 hPa NE 1.1 km/h 9.7 km/h 64% 0.0 mm 146 W/m2
09:52 23.9 °C 17.2 °C 1024.3 hPa East 3.5 km/h 8.7 km/h 66% 0.0 mm 331 W/m2
09:57 23.1 °C 16.9 °C 1024.3 hPa SE 2.6 km/h 9.7 km/h 68% 0.0 mm 214 W/m2
10:02 23.1 °C 17.1 °C 1024.3 hPa SSE 5.0 km/h 9.7 km/h 69% 0.0 mm 525 W/m2
10:07 23.3 °C 17.1 °C 1024.3 hPa SE 7.2 km/h 11.1 km/h 68% 0.0 mm 533 W/m2
10:12 23.2 °C 17.0 °C 1024.3 hPa SE 3.5 km/h 11.1 km/h 68% 0.0 mm 524 W/m2
10:17 23.6 °C 17.4 °C 1024.3 hPa SE 6.1 km/h 11.1 km/h 68% 0.0 mm 544 W/m2
10:22 24.0 °C 17.7 °C 1024.3 hPa SE 5.0 km/h 12.2 km/h 68% 0.0 mm 550 W/m2
10:27 23.9 °C 17.9 °C 1024.3 hPa SE 5.0 km/h 13.4 km/h 69% 0.0 mm 565 W/m2
10:32 24.2 °C 17.9 °C 1024.3 hPa SE 8.7 km/h 13.4 km/h 68% 0.0 mm 583 W/m2
10:37 24.2 °C 18.2 °C 1024.3 hPa ESE 5.0 km/h 12.2 km/h 69% 0.0 mm 598 W/m2
10:42 23.9 °C 17.9 °C 1024.3 hPa SE 3.5 km/h 13.4 km/h 69% 0.0 mm 613 W/m2
10:47 24.0 °C 17.3 °C 1024.3 hPa SSE 5.0 km/h 13.4 km/h 66% 0.0 mm 632 W/m2
10:52 24.3 °C 17.6 °C 1024.6 hPa SE 6.1 km/h 12.2 km/h 66% 0.0 mm 646 W/m2
10:57 24.6 °C 17.6 °C 1024.6 hPa SE 6.1 km/h 11.1 km/h 65% 0.0 mm 670 W/m2
11:02 24.5 °C 18.2 °C 1024.6 hPa SSE 9.7 km/h 12.2 km/h 68% 0.0 mm 683 W/m2
11:07 24.5 °C 18.9 °C 1024.3 hPa SSE 6.1 km/h 12.2 km/h 71% 0.0 mm 700 W/m2
11:12 24.3 °C 18.7 °C 1024.6 hPa SE 6.1 km/h 14.8 km/h 71% 0.0 mm 713 W/m2
11:17 24.2 °C 18.2 °C 1024.6 hPa SE 5.0 km/h 14.8 km/h 69% 0.0 mm 727 W/m2
11:22 24.0 °C 18.2 °C 1024.3 hPa SE 5.0 km/h 13.4 km/h 70% 0.0 mm 744 W/m2
11:27 24.1 °C 18.3 °C 1024.6 hPa SE 5.0 km/h 13.4 km/h 70% 0.0 mm 759 W/m2
11:32 24.2 °C 18.6 °C 1024.6 hPa SE 6.1 km/h 12.2 km/h 71% 0.0 mm 783 W/m2
11:37 24.4 °C 18.6 °C 1024.3 hPa SE 8.7 km/h 11.1 km/h 70% 0.0 mm 805 W/m2
11:42 24.1 °C 17.8 °C 1024.3 hPa SE 3.5 km/h 13.4 km/h 68% 0.0 mm 820 W/m2
11:47 23.9 °C 18.1 °C 1024.3 hPa SE 3.5 km/h 18.3 km/h 70% 0.0 mm 834 W/m2
11:52 23.9 °C 18.6 °C 1024.3 hPa ESE 6.1 km/h 18.3 km/h 72% 0.0 mm 853 W/m2
11:57 24.0 °C 18.0 °C 1024.3 hPa ESE 5.0 km/h 13.4 km/h 69% 0.0 mm 869 W/m2
12:02 24.0 °C 18.0 °C 1024.3 hPa SE 6.1 km/h 13.4 km/h 69% 0.0 mm 888 W/m2
12:07 24.1 °C 18.1 °C 1024.3 hPa SE 6.1 km/h 14.8 km/h 69% 0.0 mm 902 W/m2
12:12 24.0 °C 18.2 °C 1024.3 hPa ESE 8.7 km/h 14.8 km/h 70% 0.0 mm 913 W/m2
12:17 23.7 °C 18.6 °C 1023.9 hPa SE 8.7 km/h 14.8 km/h 73% 0.0 mm 920 W/m2
12:22 23.7 °C 18.8 °C 1023.9 hPa SE 6.1 km/h 14.8 km/h 74% 0.0 mm 925 W/m2
12:27 23.7 °C 19.0 °C 1023.9 hPa SE 6.1 km/h 15.8 km/h 75% 0.0 mm 937 W/m2
12:32 24.0 °C 18.7 °C 1023.9 hPa SE 8.7 km/h 18.3 km/h 72% 0.0 mm 941 W/m2
12:37 24.1 °C 19.0 °C 1023.9 hPa SE 7.2 km/h 18.3 km/h 73% 0.0 mm 944 W/m2
12:42 24.2 °C 19.3 °C 1023.9 hPa SSE 9.7 km/h 14.8 km/h 74% 0.0 mm 954 W/m2
12:47 24.4 °C 19.3 °C 1023.6 hPa SSE 7.2 km/h 14.8 km/h 73% 0.0 mm 958 W/m2
12:52 24.3 °C 19.4 °C 1023.6 hPa SE 8.7 km/h 14.8 km/h 74% 0.0 mm 959 W/m2
12:57 23.7 °C 18.8 °C 1023.6 hPa SE 3.5 km/h 14.8 km/h 74% 0.0 mm 958 W/m2
13:02 23.7 °C 19.0 °C 1023.6 hPa SSE 6.1 km/h 14.8 km/h 75% 0.0 mm 958 W/m2
13:07 24.1 °C 19.0 °C 1023.6 hPa SSE 8.7 km/h 14.8 km/h 73% 0.0 mm 962 W/m2
13:12 24.0 °C 19.1 °C 1023.6 hPa SE 6.1 km/h 14.8 km/h 74% 0.0 mm 958 W/m2
13:17 24.2 °C 18.6 °C 1023.6 hPa SE 8.7 km/h 13.4 km/h 71% 0.0 mm 956 W/m2
13:22 24.8 °C 19.4 °C 1023.6 hPa SE 8.7 km/h 14.8 km/h 72% 0.0 mm 958 W/m2
13:27 24.9 °C 18.6 °C 1023.6 hPa SSE 9.7 km/h 14.8 km/h 68% 0.0 mm 957 W/m2
13:32 25.0 °C 18.4 °C 1023.6 hPa SE 5.0 km/h 14.8 km/h 67% 0.0 mm 947 W/m2
13:37 24.9 °C 18.8 °C 1023.6 hPa SE 11.1 km/h 15.8 km/h 69% 0.0 mm 942 W/m2
13:42 24.8 °C 18.7 °C 1023.6 hPa SE 7.2 km/h 18.3 km/h 69% 0.0 mm 936 W/m2
13:47 24.8 °C 18.7 °C 1023.6 hPa SSE 8.7 km/h 18.3 km/h 69% 0.0 mm 928 W/m2
13:52 24.8 °C 18.5 °C 1023.6 hPa ESE 5.0 km/h 17.2 km/h 68% 0.0 mm 921 W/m2
13:57 24.9 °C 18.6 °C 1023.2 hPa ESE 6.1 km/h 17.2 km/h 68% 0.0 mm 916 W/m2
14:02 24.8 °C 18.7 °C 1023.2 hPa ESE 8.7 km/h 21.9 km/h 69% 0.0 mm 904 W/m2
14:07 25.0 °C 18.4 °C 1023.6 hPa ESE 3.5 km/h 21.9 km/h 67% 0.0 mm 898 W/m2
14:12 25.1 °C 18.6 °C 1023.2 hPa ESE 7.2 km/h 14.8 km/h 67% 0.0 mm 895 W/m2
14:17 25.2 °C 18.4 °C 1023.2 hPa SE 7.2 km/h 15.8 km/h 66% 0.0 mm 889 W/m2
14:22 25.1 °C 18.6 °C 1023.2 hPa SE 7.2 km/h 15.8 km/h 67% 0.0 mm 887 W/m2
14:27 25.0 °C 18.4 °C 1023.2 hPa ESE 7.2 km/h 17.2 km/h 67% 0.0 mm 875 W/m2
14:32 24.8 °C 19.4 °C 1023.2 hPa ESE 8.7 km/h 17.2 km/h 72% 0.0 mm 873 W/m2
14:37 24.8 °C 18.7 °C 1023.2 hPa ESE 9.7 km/h 15.8 km/h 69% 0.0 mm 379 W/m2
14:42 24.9 °C 19.3 °C 1023.2 hPa ESE 5.0 km/h 15.8 km/h 71% 0.0 mm 928 W/m2
14:47 25.5 °C 18.9 °C 1023.2 hPa SE 3.5 km/h 17.2 km/h 67% 0.0 mm 875 W/m2
14:52 26.0 °C 18.9 °C 1023.2 hPa ESE 2.6 km/h 17.2 km/h 65% 0.0 mm 566 W/m2
14:57 26.6 °C 19.0 °C 1023.2 hPa ESE 6.1 km/h 12.2 km/h 63% 0.0 mm 440 W/m2
15:02 25.9 °C 18.8 °C 1023.2 hPa SSE 7.2 km/h 13.4 km/h 65% 0.0 mm 853 W/m2
15:07 25.4 °C 18.6 °C 1023.2 hPa SSE 8.7 km/h 14.8 km/h 66% 0.0 mm 390 W/m2
15:12 24.7 °C 18.7 °C 1023.2 hPa SSE 8.7 km/h 14.8 km/h 69% 0.0 mm 343 W/m2
15:17 24.6 °C 19.0 °C 1023.2 hPa SSE 2.6 km/h 13.4 km/h 71% 0.0 mm 315 W/m2
15:22 24.6 °C 18.8 °C 1023.2 hPa SSE 6.1 km/h 13.4 km/h 70% 0.0 mm 322 W/m2
15:27 24.6 °C 19.0 °C 1023.2 hPa SSE 5.0 km/h 13.4 km/h 71% 0.0 mm 213 W/m2
15:32 24.6 °C 18.8 °C 1022.9 hPa SSE 2.6 km/h 13.4 km/h 70% 0.0 mm 219 W/m2
15:37 24.9 °C 18.8 °C 1022.9 hPa SE 6.1 km/h 13.4 km/h 69% 0.0 mm 254 W/m2
15:42 25.4 °C 18.6 °C 1022.9 hPa SE 5.0 km/h 13.4 km/h 66% 0.0 mm 243 W/m2
15:47 25.5 °C 18.4 °C 1022.9 hPa SE 5.0 km/h 13.4 km/h 65% 0.0 mm 600 W/m2
15:52 26.7 °C 18.8 °C 1022.9 hPa SE 6.1 km/h 11.1 km/h 62% 0.0 mm 807 W/m2
15:57 27.5 °C 18.8 °C 1022.9 hPa ESE 3.5 km/h 12.2 km/h 59% 0.0 mm 810 W/m2
16:02 28.4 °C 19.1 °C 1022.9 hPa East 3.5 km/h 12.2 km/h 57% 0.0 mm 750 W/m2
16:07 28.6 °C 19.0 °C 1022.6 hPa ESE 2.6 km/h 12.2 km/h 56% 0.0 mm 524 W/m2
16:12 28.5 °C 18.9 °C 1022.6 hPa SE 2.6 km/h 12.2 km/h 56% 0.0 mm 310 W/m2
16:17 27.3 °C 18.6 °C 1022.6 hPa SE 2.6 km/h 11.1 km/h 59% 0.0 mm 343 W/m2
16:22 26.8 °C 18.9 °C 1022.6 hPa SE 5.0 km/h 11.1 km/h 62% 0.0 mm 314 W/m2
16:27 26.4 °C 18.8 °C 1022.6 hPa ESE 6.1 km/h 12.2 km/h 63% 0.0 mm 276 W/m2
16:32 26.4 °C 18.6 °C 1022.6 hPa ESE 6.1 km/h 13.4 km/h 62% 0.0 mm 254 W/m2
16:37 26.6 °C 19.0 °C 1022.6 hPa ESE 3.5 km/h 13.4 km/h 63% 0.0 mm 398 W/m2
16:42 27.7 °C 19.3 °C 1022.2 hPa ESE 5.0 km/h 13.4 km/h 60% 0.0 mm 359 W/m2
16:47 28.3 °C 18.7 °C 1022.2 hPa ESE 2.6 km/h 13.4 km/h 56% 0.0 mm 627 W/m2
16:52 28.3 °C 18.7 °C 1022.6 hPa ESE 5.0 km/h 13.4 km/h 56% 0.0 mm 601 W/m2
16:57 28.2 °C 18.6 °C 1022.6 hPa ESE 5.0 km/h 17.2 km/h 56% 0.0 mm 522 W/m2
17:02 28.0 °C 18.7 °C 1022.6 hPa ESE 7.2 km/h 17.2 km/h 57% 0.0 mm 467 W/m2
17:07 27.6 °C 18.3 °C 1022.6 hPa ESE 5.0 km/h 17.2 km/h 57% 0.0 mm 108 W/m2
17:12 27.0 °C 18.3 °C 1022.6 hPa ESE 8.7 km/h 13.4 km/h 59% 0.0 mm 97 W/m2
17:17 26.7 °C 18.3 °C 1022.6 hPa East 9.7 km/h 19.5 km/h 60% 0.0 mm 447 W/m2
17:22 27.3 °C 17.8 °C 1022.2 hPa East 9.7 km/h 19.5 km/h 56% 0.0 mm 94 W/m2
17:27 26.0 °C 17.7 °C 1022.2 hPa ESE 13.4 km/h 20.9 km/h 60% 0.0 mm 75 W/m2
17:32 25.5 °C 18.2 °C 1022.2 hPa East 8.7 km/h 21.9 km/h 64% 0.0 mm 108 W/m2
17:37 25.4 °C 18.4 °C 1022.6 hPa East 6.1 km/h 21.9 km/h 65% 0.0 mm 339 W/m2
17:42 26.2 °C 18.4 °C 1022.6 hPa East 11.1 km/h 18.3 km/h 62% 0.0 mm 337 W/m2
17:47 26.2 °C 17.6 °C 1022.6 hPa ENE 15.8 km/h 23.3 km/h 59% 0.0 mm 101 W/m2
17:52 25.2 °C 17.7 °C 1022.6 hPa East 15.8 km/h 23.3 km/h 63% 0.0 mm 99 W/m2
17:57 24.8 °C 18.1 °C 1022.6 hPa East 8.7 km/h 23.3 km/h 66% 0.0 mm 73 W/m2
18:02 24.5 °C 18.0 °C 1022.6 hPa ENE 12.2 km/h 23.3 km/h 67% 0.0 mm 56 W/m2
18:07 24.1 °C 17.8 °C 1022.9 hPa ENE 12.2 km/h 20.9 km/h 68% 0.0 mm 51 W/m2
18:12 23.9 °C 18.1 °C 1022.9 hPa ENE 14.8 km/h 20.9 km/h 70% 0.0 mm 47 W/m2
18:17 23.8 °C 18.0 °C 1022.9 hPa ENE 9.7 km/h 18.3 km/h 70% 0.0 mm 50 W/m2
18:22 23.6 °C 18.1 °C 1023.2 hPa ENE 11.1 km/h 18.3 km/h 71% 0.0 mm 52 W/m2
18:27 23.5 °C 17.9 °C 1023.2 hPa ENE 9.7 km/h 18.3 km/h 71% 0.0 mm 59 W/m2
18:32 23.4 °C 17.9 °C 1023.2 hPa ENE 6.1 km/h 17.2 km/h 71% 0.0 mm 57 W/m2
18:37 23.3 °C 18.0 °C 1023.2 hPa ENE 6.1 km/h 17.2 km/h 72% 0.0 mm 53 W/m2
18:42 23.2 °C 17.9 °C 1023.2 hPa ENE 7.2 km/h 15.8 km/h 72% 0.0 mm 51 W/m2
18:45 23.1 °C 18.0 °C 1023.2 hPa East 6.1 km/h 15.8 km/h 73% 0.0 mm 52 W/m2
18:50 23.0 °C 17.9 °C 1023.2 hPa East 12.2 km/h 19.5 km/h 73% 0.0 mm 53 W/m2
18:55 22.9 °C 17.8 °C 1023.2 hPa East 6.1 km/h 19.5 km/h 73% 0.0 mm 49 W/m2
19:00 22.8 °C 17.7 °C 1023.2 hPa East 11.1 km/h 17.2 km/h 73% 0.0 mm 45 W/m2
19:05 22.7 °C 17.6 °C 1023.6 hPa ENE 7.2 km/h 17.2 km/h 73% 0.0 mm 43 W/m2
19:10 22.7 °C 17.8 °C 1023.6 hPa ENE 2.6 km/h 17.2 km/h 74% 0.0 mm 43 W/m2
19:26 22.4 °C 17.8 °C 1023.6 hPa ENE 3.5 km/h 7.2 km/h 75% 0.0 mm 22 W/m2
19:31 22.3 °C 17.9 °C 1023.9 hPa ENE 2.6 km/h 7.2 km/h 76% 0.0 mm 21 W/m2
19:36 22.2 °C 17.8 °C 1023.9 hPa ENE 2.6 km/h 7.2 km/h 76% 0.0 mm 20 W/m2
19:41 22.1 °C 17.7 °C 1023.9 hPa ENE 3.5 km/h 7.2 km/h 76% 0.0 mm 17 W/m2
19:46 22.0 °C 17.8 °C 1023.9 hPa ENE 3.5 km/h 7.2 km/h 77% 0.0 mm 16 W/m2
19:51 22.0 °C 17.8 °C 1023.9 hPa ENE 2.6 km/h 5.0 km/h 77% 0.0 mm 13 W/m2
19:56 21.9 °C 17.9 °C 1024.3 hPa East 2.6 km/h 5.0 km/h 78% 0.0 mm 11 W/m2
20:01 21.8 °C 18.0 °C 1024.3 hPa East 2.6 km/h 5.0 km/h 79% 0.0 mm 6 W/m2
20:06 21.6 °C 18.0 °C 1024.3 hPa East 2.6 km/h 6.1 km/h 80% 0.0 mm 2 W/m2
20:11 21.4 °C 18.0 °C 1024.3 hPa East 3.5 km/h 6.1 km/h 81% 0.0 mm 0 W/m2
20:16 21.4 °C 18.2 °C 1024.3 hPa East 11.1 km/h 17.2 km/h 82% 0.0 mm 0 W/m2
20:21 21.6 °C 18.0 °C 1024.3 hPa ENE 7.2 km/h 17.2 km/h 80% 0.0 mm 0 W/m2
20:26 21.6 °C 18.0 °C 1024.3 hPa ENE 8.7 km/h 15.8 km/h 80% 0.0 mm 0 W/m2
20:31 21.7 °C 17.9 °C 1024.3 hPa ENE 6.1 km/h 17.2 km/h 79% 0.0 mm 0 W/m2
20:35 21.6 °C 17.8 °C 1024.3 hPa NE 2.6 km/h 17.2 km/h 79% 0.0 mm 0 W/m2
20:40 21.6 °C 18.0 °C 1024.3 hPa ENE 3.5 km/h 9.7 km/h 80% 0.0 mm 0 W/m2
20:45 21.4 °C 18.0 °C 1024.3 hPa ENE 3.5 km/h 9.7 km/h 81% 0.0 mm 0 W/m2
20:50 21.3 °C 17.9 °C 1024.3 hPa East 7.2 km/h 9.7 km/h 81% 0.0 mm 0 W/m2
20:55 21.3 °C 18.1 °C 1024.6 hPa ENE 6.1 km/h 17.2 km/h 82% 0.0 mm 0 W/m2
21:00 21.2 °C 18.0 °C 1024.6 hPa ENE 5.0 km/h 17.2 km/h 82% 0.0 mm 0 W/m2
21:05 21.2 °C 18.0 °C 1024.6 hPa ENE 5.0 km/h 11.1 km/h 82% 0.0 mm 0 W/m2
21:10 21.2 °C 18.0 °C 1024.6 hPa ENE 6.1 km/h 12.2 km/h 82% 0.0 mm 0 W/m2
21:16 21.2 °C 18.0 °C 1024.9 hPa ENE 5.0 km/h 13.4 km/h 82% 0.0 mm 0 W/m2
21:21 21.3 °C 17.9 °C 1024.9 hPa NE 5.0 km/h 17.2 km/h 81% 0.0 mm 0 W/m2
21:26 21.3 °C 17.9 °C 1024.9 hPa NE 6.1 km/h 17.2 km/h 81% 0.0 mm 0 W/m2
21:31 21.2 °C 18.0 °C 1024.9 hPa ENE 5.0 km/h 12.2 km/h 82% 0.0 mm 0 W/m2
21:36 21.2 °C 18.0 °C 1024.9 hPa ENE 6.1 km/h 9.7 km/h 82% 0.0 mm 0 W/m2
21:41 21.1 °C 17.9 °C 1024.9 hPa ENE 3.5 km/h 9.7 km/h 82% 0.0 mm 0 W/m2
21:46 20.9 °C 17.9 °C 1024.9 hPa East 2.6 km/h 9.7 km/h 83% 0.0 mm 0 W/m2
21:51 20.7 °C 17.9 °C 1024.9 hPa Calm   7.2 km/h 84% 0.0 mm 0 W/m2
21:56 20.6 °C 17.8 °C 1025.3 hPa Calm   3.5 km/h 84% 0.0 mm 0 W/m2
22:01 20.7 °C 18.1 °C 1024.9 hPa Calm   3.5 km/h 85% 0.0 mm 0 W/m2
22:06 20.4 °C 17.8 °C 1025.3 hPa East 1.1 km/h 3.5 km/h 85% 0.0 mm 0 W/m2
22:11 20.3 °C 17.9 °C 1025.3 hPa ESE 1.1 km/h 3.5 km/h 86% 0.0 mm 0 W/m2
22:16 20.3 °C 17.9 °C 1025.3 hPa East 1.1 km/h 3.5 km/h 86% 0.0 mm 0 W/m2
22:21 20.1 °C 17.9 °C 1025.3 hPa Calm   3.5 km/h 87% 0.0 mm 0 W/m2
22:26 20.2 °C 18.0 °C 1025.6 hPa ENE 1.1 km/h 3.5 km/h 87% 0.0 mm 0 W/m2
22:31 20.1 °C 17.9 °C 1025.3 hPa ENE 5.0 km/h 7.2 km/h 87% 0.0 mm 0 W/m2
22:36 20.2 °C 18.0 °C 1025.3 hPa ENE 8.7 km/h 15.8 km/h 87% 0.0 mm 0 W/m2
22:41 20.5 °C 17.9 °C 1025.3 hPa ENE 5.0 km/h 15.8 km/h 85% 0.0 mm 0 W/m2
22:46 20.7 °C 17.9 °C 1025.3 hPa ENE 9.7 km/h 15.8 km/h 84% 0.0 mm 0 W/m2
22:51 20.8 °C 17.8 °C 1025.3 hPa ENE 6.1 km/h 15.8 km/h 83% 0.0 mm 0 W/m2
22:56 20.8 °C 17.8 °C 1025.3 hPa ENE 6.1 km/h 11.1 km/h 83% 0.0 mm 0 W/m2
23:01 20.3 °C 17.3 °C 1025.3 hPa ENE 3.5 km/h 9.7 km/h 83% 0.0 mm 0 W/m2
23:06 20.6 °C 17.8 °C 1025.3 hPa ENE 1.1 km/h 8.7 km/h 84% 0.0 mm 0 W/m2
23:11 20.4 °C 17.6 °C 1025.6 hPa Calm   7.2 km/h 84% 0.0 mm 0 W/m2
23:16 20.3 °C 17.5 °C 1025.6 hPa ENE 1.1 km/h 3.5 km/h 84% 0.0 mm 0 W/m2
23:21 20.2 °C 17.6 °C 1025.6 hPa ENE 2.6 km/h 5.0 km/h 85% 0.0 mm 0 W/m2
23:26 20.2 °C 17.6 °C 1025.6 hPa ENE 2.6 km/h 6.1 km/h 85% 0.0 mm 0 W/m2
23:31 20.2 °C 17.6 °C 1025.6 hPa NE 1.1 km/h 6.1 km/h 85% 0.0 mm 0 W/m2
23:36 20.2 °C 17.6 °C 1025.3 hPa ENE 2.6 km/h 6.1 km/h 85% 0.0 mm 0 W/m2
23:41 20.2 °C 17.8 °C 1025.6 hPa ENE 2.6 km/h 5.0 km/h 86% 0.0 mm 0 W/m2
23:46 20.0 °C 17.4 °C 1025.6 hPa Calm   5.0 km/h 85% 0.0 mm 0 W/m2
23:51 19.8 °C 17.6 °C 1025.6 hPa Calm   5.0 km/h 87% 0.0 mm 0 W/m2
23:56 19.7 °C 17.5 °C 1025.6 hPa Calm   1.1 km/h 87% 0.0 mm 0 W/m2
Northern Hawkes Bay. New Zealand Historic Data
Compliments of Weather Underground - 2 mb